This is the latest recevied weather packets stored in our database for station/object SM4JDW-10. If no packets are shown the sender has not sent any weather packets the latest 10 day(s).
| Time | Temp. | Humidity | Pressure | Rain* | Wind** | Luminosity | Snow |
|---|---|---|---|---|---|---|---|
| 1788545289 | 15° C | 60% | 994.3 hPa | - | - | - | - |
| 1788543489 | 15° C | 59% | 994.2 hPa | - | - | - | - |
| 1788541689 | 15.56° C | 56% | 994.3 hPa | - | - | - | - |
| 1788539889 | 16.11° C | 56% | 994.4 hPa | - | - | - | - |
| 1788538089 | 16.11° C | 56% | 994.5 hPa | - | - | - | - |
| 1788536289 | 16.67° C | 55% | 994.6 hPa | - | - | - | - |
| 1788534489 | 16.67° C | 54% | 994.8 hPa | - | - | - | - |
| 1788532689 | 17.22° C | 50% | 994.9 hPa | - | - | - | - |
| 1788530889 | 17.78° C | 50% | 995 hPa | - | - | - | - |
| 1788529089 | 17.78° C | 50% | 995.2 hPa | - | - | - | - |
| 1788527288 | 18.33° C | 50% | 995.5 hPa | - | - | - | - |
| 1788525488 | 18.89° C | 47% | 995.5 hPa | - | - | - | - |
| 1788523688 | 18.33° C | 49% | 995.9 hPa | - | - | - | - |
| 1788521888 | 17.22° C | 53% | 996.2 hPa | - | - | - | - |
| 1788520087 | 16.67° C | 58% | 996.5 hPa | - | - | - | - |
| 1788518287 | 16.11° C | 60% | 996.8 hPa | - | - | - | - |
| 1788516487 | 15° C | 60% | 997.1 hPa | - | - | - | - |
| 1788514687 | 13.89° C | 65% | 997.4 hPa | - | - | - | - |
| 1788512892 | 12.22° C | 69% | 997.6 hPa | - | - | - | - |
| 1788511090 | 10.56° C | 71% | 997.9 hPa | - | - | - | - |
| 1788509290 | 9.44° C | 72% | 998.1 hPa | - | - | - | - |
| 1788507489 | 8.89° C | 72% | 998.1 hPa | - | - | - | - |
| 1788505689 | 7.78° C | 73% | 998.3 hPa | - | - | - | - |
| 1788503889 | 7.22° C | 71% | 998.5 hPa | - | - | - | - |
| 1788502089 | 6.67° C | 66% | 998.6 hPa | - | - | - | - |
* Rain since midnight (hover to see other rain measurements)
** Current wind speed in m/s (hover to see current wind gust speed)